Location: Katzenstein
(51.7484°N, 10.2155°E)
Time: 09:50:50
(UTC+00:00)

STARLINK-1129 - Pass Details

Date: 17 February 2020
Orbit: 549 x 551 km, 53.0° (Epoch: 10 April)

Event Time Altitude Azimuth Distance (km) Brightness Sun altitude
Exits shadow 05:17:12 18° 282° (WNW) 1,391 5.0 -12.0°
Maximum altitude 05:20:14 76° 6° (N) 573 3.7 -11.5°
Drops below altitude 10° 05:24:24 10° 93° (E) 1,831 7.9 -10.9°
Sets 05:26:39 0° 95° (E) 2,724 9.5 -10.5°
